Location: Iowa City
(41.6610°N, 91.5300°W)
Time: 02:07:04
(UTC-05:00)

ISS - Visible Passes

Search period start: 26 July 2014 00:00
Search period end: 05 August 2014 00:00
Orbit: 411 x 420 km, 51.6° (Epoch: 26 July)

Date Brightness Start Highest point End Pass type
(mag) Time Alt. Az. Time Alt. Az. Time Alt. Az.
26 Jul -0.5 02:00:04 17° NE 02:00:04 17° NE 02:01:00 10° NE visible
26 Jul -0.6 03:32:55 11° NW 03:34:59 18° NNW 03:37:21 10° NNE visible
26 Jul -0.4 05:10:27 10° NNW 05:12:40 16° N 05:14:54 10° NE visible
27 Jul -0.9 02:45:45 21° NNW 02:45:58 21° NNW 02:48:37 10° NE visible
27 Jul -0.3 04:21:34 10° NW 04:23:38 15° N 04:25:41 10° NE visible
28 Jul -0.5 01:58:35 19° NNE 01:58:35 19° NNE 01:59:56 10° NE visible
28 Jul -0.3 03:32:32 10° NW 03:34:34 15° N 03:36:37 10° NE visible
28 Jul -0.7 05:09:29 10° NW 05:12:12 22° NNE 05:14:55 10° ENE visible
29 Jul -0.4 02:44:16 14° NNW 02:45:31 16° N 02:47:42 10° NNE visible
29 Jul -0.4 04:20:47 10° NNW 04:23:13 18° NNE 04:25:38 10° ENE visible
30 Jul -0.3 01:57:07 17° N 01:57:07 17° N 01:58:54 10° NNE visible
30 Jul -0.2 03:32:00 10° NNW 03:34:11 16° N 03:36:22 10° NE visible
30 Jul -1.7 05:08:24 10° NW 05:11:36 38° NNE 05:14:46 10° E visible
31 Jul 0.1 01:10:01 11° NNE 01:10:01 11° NNE 01:10:11 10° NE visible
31 Jul -0.1 02:43:05 10° NW 02:45:08 15° N 02:47:10 10° NE visible
31 Jul -1.0 04:19:44 10° NW 04:22:41 27° NNE 04:25:38 10° E visible
01 Aug -0.2 01:55:54 15° N 01:56:05 15° N 01:58:07 10° NE visible
01 Aug -0.6 03:31:04 10° NW 03:33:43 21° NNE 03:36:23 10° ENE visible
01 Aug -3.3 05:07:26 10° NW 05:10:48 89° SW 05:14:10 10° SE visible
01 Aug -0.9 21:50:12 10° SSW 21:50:29 12° S 21:50:29 12° S visible
02 Aug 0.2 01:09:14 10° NNE 01:09:14 10° NNE 01:09:14 10° NNE visible
02 Aug -0.3 02:42:21 10° NNW 02:44:43 18° NNE 02:47:06 10° ENE visible
02 Aug -2.5 04:18:41 10° NW 04:22:00 55° NNE 04:25:18 10° ESE visible
02 Aug -1.6 21:02:25 10° SSE 21:04:25 15° SE 21:06:26 10° E visible
02 Aug -2.9 22:37:29 10° WSW 22:40:47 65° NNW 22:41:28 49° NNE visible
03 Aug -0.1 01:56:33 15° NNE 01:56:33 15° NNE 01:57:50 10° NE visible
03 Aug -1.7 03:29:59 10° NW 03:33:08 36° NNE 03:36:16 10° E visible
03 Aug -2.5 05:06:47 10° WNW 05:09:49 31° SW 05:12:50 10° SSE visible
03 Aug -3.4 21:48:41 10° SW 21:52:00 74° SE 21:55:21 10° ENE visible
03 Aug -0.8 23:26:17 10° WNW 23:29:01 23° NNW 23:30:23 18° NNE visible
04 Aug -0.4 02:46:23 14° ENE 02:46:23 14° ENE 02:47:06 10° E visible
04 Aug -3.3 04:19:35 28° WNW 04:21:07 56° SW 04:24:25 10° SE visible
04 Aug -2.9 21:00:08 10° SSW 21:03:17 41° SE 21:06:27 10° ENE visible
04 Aug -1.3 22:37:04 10° W 22:40:04 30° NNW 22:43:05 10° NE visible
